When you browse on this site, cookies collect data to enhance your experience and personalize the content and advertising you see.
Visit our Privacy Policy to learn more. By continuing to use the site, you agree to this use of cookies and data.
  • In Hungary
  • List of Countries
  • For 7 days
  • Water Temperature
  • Satellite Maps
  • Weather Map
  • News
  • Weather Widgets
  • user-avatar
    Login

    Hourly Weather Pinto

    Today, 18 November, Sunday

    Time Temperature Precipitation Wind Pressure Humidity
    00:00 +11°C° 0 mm 4 mps 703 mmHg 82%
    01:00 +11°C° 0 mm 4 mps 703 mmHg 83%
    02:00 +11°C° 0 mm 4 mps 702 mmHg 84%
    03:00 +10°C° 0 mm 4 mps 702 mmHg 85%
    04:00 +10°C° 0 mm 4 mps 702 mmHg 85%
    05:00 +10°C° 0 mm 4 mps 702 mmHg 84%
    06:00 +10°C° 0 mm 4 mps 702 mmHg 83%
    07:00 +9°C° 0 mm 5 mps 701 mmHg 81%
    08:00 +10°C° 0 mm 5 mps 701 mmHg 79%
    09:00 +10°C° 0 mm 6 mps 701 mmHg 77%
    10:00 +10°C° 0.2 mm 6 mps 701 mmHg 75%
    11:00 +12°C° 0.2 mm 5 mps 701 mmHg 73%
    12:00 +12°C° 0.2 mm 5 mps 701 mmHg 72%
    13:00 +12°C° 0.6 mm 5 mps 700 mmHg 73%
    14:00 +12°C° 0.6 mm 5 mps 700 mmHg 75%
    15:00 +11°C° 0.6 mm 4 mps 699 mmHg 77%
    16:00 +11°C° 0.6 mm 4 mps 699 mmHg 79%
    17:00 +10°C° 0.6 mm 5 mps 699 mmHg 81%
    18:00 +10°C° 0.6 mm 5 mps 699 mmHg 82%
    19:00 +10°C° 0.8 mm 5 mps 699 mmHg 82%
    20:00 +9°C° 0.8 mm 5 mps 699 mmHg 82%
    21:00 +9°C° 0.8 mm 6 mps 700 mmHg 82%
    22:00 +9°C° 0.6 mm 5 mps 699 mmHg 83%
    23:00 +9°C° 0.6 mm 5 mps 699 mmHg 83%

    Tomorrow, 19 November, Monday

    Time Temperature Precipitation Wind Pressure Humidity
    00:00 +9°C° 0.6 mm 5 mps 699 mmHg 83%
    01:00 +10°C° 0.4 mm 4 mps 699 mmHg 83%
    02:00 +8°C° 0.4 mm 4 mps 699 mmHg 83%
    03:00 +8°C° 0.4 mm 4 mps 699 mmHg 83%
    04:00 +9°C° 0.2 mm 3 mps 698 mmHg 83%
    05:00 +9°C° 0.2 mm 3 mps 698 mmHg 82%
    06:00 +9°C° 0.2 mm 3 mps 698 mmHg 81%
    07:00 +9°C° 0 mm 2 mps 698 mmHg 80%
    08:00 +10°C° 0 mm 2 mps 699 mmHg 78%
    09:00 +10°C° 0 mm 2 mps 699 mmHg 76%
    10:00 +12°C° 0 mm 1 mps 699 mmHg 73%
    11:00 +12°C° 0 mm 1 mps 698 mmHg 70%
    12:00 +13°C° 0 mm 1 mps 698 mmHg 67%
    13:00 +13°C° 0 mm 1 mps 698 mmHg 66%
    14:00 +14°C° 0 mm 2 mps 698 mmHg 64%
    15:00 +14°C° 0 mm 2 mps 697 mmHg 63%
    16:00 +12°C° 0.1 mm 3 mps 697 mmHg 68%
    17:00 +12°C° 0.1 mm 3 mps 697 mmHg 72%
    18:00 +11°C° 0.1 mm 3 mps 697 mmHg 77%
    19:00 +11°C° 0.3 mm 3 mps 697 mmHg 78%
    20:00 +11°C° 0.3 mm 3 mps 697 mmHg 80%
    21:00 +10°C° 0.3 mm 3 mps 697 mmHg 82%
    22:00 +10°C° 0.1 mm 3 mps 697 mmHg 84%
    23:00 +10°C° 0.1 mm 4 mps 697 mmHg 85%

    Day after tomorrow, 20 November, Tuesday

    Time Temperature Precipitation Wind Pressure Humidity
    00:00 +10°C° 0.1 mm 4 mps 697 mmHg 86%
    01:00 +8°C° 0.2 mm 4 mps 697 mmHg 88%
    02:00 +8°C° 0.2 mm 4 mps 697 mmHg 89%
    03:00 +8°C° 0.2 mm 4 mps 696 mmHg 90%
    04:00 +8°C° 0.4 mm 4 mps 696 mmHg 89%
    05:00 +8°C° 0.4 mm 4 mps 696 mmHg 89%
    06:00 +8°C° 0.4 mm 5 mps 695 mmHg 88%
    07:00 +8°C° 0.2 mm 5 mps 696 mmHg 86%
    08:00 +8°C° 0.2 mm 5 mps 696 mmHg 84%
    09:00 +9°C° 0.2 mm 6 mps 696 mmHg 82%
    10:00 +9°C° 0.1 mm 6 mps 696 mmHg 78%
    11:00 +9°C° 0.1 mm 7 mps 696 mmHg 74%
    12:00 +10°C° 0.1 mm 7 mps 696 mmHg 70%
    13:00 +10°C° 0.1 mm 7 mps 696 mmHg 69%
    14:00 +10°C° 0.1 mm 7 mps 696 mmHg 68%
    15:00 +10°C° 0.1 mm 7 mps 696 mmHg 67%
    16:00 +9°C° 0.2 mm 6 mps 696 mmHg 73%
    17:00 +8°C° 0.2 mm 5 mps 696 mmHg 78%
    18:00 +8°C° 0.2 mm 5 mps 696 mmHg 84%
    19:00 +8°C° 0.1 mm 5 mps 697 mmHg 84%
    20:00 +8°C° 0.1 mm 5 mps 697 mmHg 85%
    21:00 +8°C° 0.1 mm 6 mps 698 mmHg 86%
    22:00 +7°C° 0 mm 6 mps 698 mmHg 85%
    23:00 +7°C° 0 mm 5 mps 699 mmHg 85%

    21 November, Wednesday

    Time Temperature Precipitation Wind Pressure Humidity
    00:00 +6°C° 0 mm 5 mps 699 mmHg 85%
    01:00 +6°C° 0 mm 5 mps 699 mmHg 85%
    02:00 +6°C° 0 mm 5 mps 700 mmHg 85%
    03:00 +5°C° 0 mm 5 mps 700 mmHg 85%
    04:00 +5°C° 0 mm 4 mps 700 mmHg 86%
    05:00 +4°C° 0 mm 4 mps 701 mmHg 87%
    06:00 +4°C° 0 mm 4 mps 701 mmHg 88%
    07:00 +4°C° 0 mm 4 mps 702 mmHg 85%
    08:00 +5°C° 0 mm 4 mps 702 mmHg 82%
    09:00 +5°C° 0 mm 3 mps 703 mmHg 79%
    10:00 +6°C° 0 mm 4 mps 703 mmHg 74%
    11:00 +7°C° 0 mm 4 mps 703 mmHg 70%
    12:00 +8°C° 0 mm 4 mps 703 mmHg 65%
    13:00 +9°C° 0.2 mm 5 mps 703 mmHg 67%
    14:00 +9°C° 0.2 mm 5 mps 703 mmHg 68%
    15:00 +9°C° 0.2 mm 6 mps 703 mmHg 69%
    16:00 +8°C° 0 mm 5 mps 703 mmHg 72%
    17:00 +7°C° 0 mm 4 mps 703 mmHg 76%
    18:00 +7°C° 0 mm 3 mps 704 mmHg 79%
    19:00 +7°C° 0.1 mm 3 mps 704 mmHg 81%
    20:00 +7°C° 0.1 mm 3 mps 704 mmHg 84%
    21:00 +5°C° 0.1 mm 3 mps 705 mmHg 86%
    22:00 +5°C° 0.2 mm 3 mps 705 mmHg 88%
    23:00 +5°C° 0.2 mm 3 mps 705 mmHg 89%

    22 November, Thursday

    Time Temperature Precipitation Wind Pressure Humidity
    00:00 +5°C° 0.2 mm 3 mps 705 mmHg 91%
    01:00 +5°C° 0.1 mm 3 mps 705 mmHg 91%
    02:00 +5°C° 0.1 mm 3 mps 705 mmHg 91%
    03:00 +4°C° 0.1 mm 3 mps 705 mmHg 92%
    04:00 +4°C° 0 mm 3 mps 705 mmHg 91%
    05:00 +4°C° 0 mm 3 mps 705 mmHg 90%
    06:00 +4°C° 0 mm 3 mps 705 mmHg 89%
    07:00 +5°C° 0 mm 3 mps 705 mmHg 86%
    08:00 +5°C° 0 mm 4 mps 706 mmHg 83%
    09:00 +6°C° 0 mm 4 mps 706 mmHg 80%
    10:00 +6°C° 0 mm 4 mps 706 mmHg 76%
    11:00 +7°C° 0 mm 4 mps 706 mmHg 73%
    12:00 +7°C° 0 mm 4 mps 706 mmHg 69%
    13:00 +8°C° 0.1 mm 4 mps 706 mmHg 68%
    14:00 +8°C° 0.1 mm 4 mps 705 mmHg 66%
    15:00 +8°C° 0.1 mm 4 mps 705 mmHg 64%
    16:00 +9°C° 0.2 mm 3 mps 706 mmHg 69%
    17:00 +8°C° 0.2 mm 3 mps 706 mmHg 74%
    18:00 +7°C° 0.2 mm 2 mps 706 mmHg 79%
    19:00 +7°C° 0.1 mm 2 mps 707 mmHg 81%
    20:00 +7°C° 0.1 mm 2 mps 707 mmHg 84%
    21:00 +6°C° 0.1 mm 2 mps 708 mmHg 86%
    22:00 +6°C° 0 mm 2 mps 708 mmHg 88%
    23:00 +6°C° 0 mm 2 mps 708 mmHg 89%

    23 November, Friday

    Time Temperature Precipitation Wind Pressure Humidity
    00:00 +5°C° 0 mm 3 mps 708 mmHg 91%
    01:00 +6°C° 0 mm 2 mps 708 mmHg 91%
    02:00 +6°C° 0 mm 2 mps 708 mmHg 92%
    03:00 +6°C° 0 mm 2 mps 708 mmHg 92%
    04:00 +6°C° 0 mm 2 mps 709 mmHg 92%
    05:00 +6°C° 0 mm 2 mps 709 mmHg 92%
    06:00 +6°C° 0 mm 2 mps 709 mmHg 91%
    07:00 +6°C° 0 mm 2 mps 709 mmHg 89%
    08:00 +7°C° 0 mm 2 mps 709 mmHg 87%
    09:00 +8°C° 0 mm 1 mps 710 mmHg 84%
    10:00 +8°C° 0 mm 2 mps 710 mmHg 78%
    11:00 +9°C° 0 mm 2 mps 709 mmHg 73%
    12:00 +10°C° 0 mm 2 mps 709 mmHg 67%
    13:00 +10°C° 0 mm 2 mps 709 mmHg 65%
    14:00 +12°C° 0 mm 2 mps 708 mmHg 64%
    15:00 +12°C° 0 mm 2 mps 708 mmHg 63%
    16:00 +10°C° 0 mm 2 mps 708 mmHg 65%
    17:00 +10°C° 0 mm 2 mps 708 mmHg 68%
    18:00 +9°C° 0 mm 2 mps 708 mmHg 71%
    19:00 +9°C° 0.1 mm 2 mps 708 mmHg 72%
    20:00 +9°C° 0.1 mm 2 mps 708 mmHg 73%
    21:00 +8°C° 0.1 mm 2 mps 708 mmHg 75%
    22:00 +8°C° 0.2 mm 2 mps 708 mmHg 77%
    23:00 +8°C° 0.2 mm 2 mps 707 mmHg 79%
    Show more